This demonstration page uses our WeatherBlox Daily Observations layout. Learn more.

Left ArrowRight Arrow

Hourly Observations for January 17, 2018

Temp ( °F °C ) Dew Point ( °F °C ) Humidity (%) Winds ( mph kmh ) Pressure ( in mb ) Visibility ( mi km ) Precip ( " mm )
12:15 am 00:15 Cloudy 7 -14 5 -15 92 92 SW 7 11 30.62 1037 5 8 N/A
12:35 am 00:35 Cloudy 5 -15 5 -15 100 100 SW 6 9 30.62 1037 7 11 N/A
12:55 am 00:55 Cloudy 7 -14 5 -15 92 92 WSW 6 9 30.62 1037 5 8 N/A
1:15 am 01:15 Cloudy 7 -14 5 -15 92 92 WSW 7 11 30.62 1037 5 8 N/A
1:35 am 01:35 Cloudy 7 -14 5 -15 92 92 WSW 7 11 30.62 1037 7 11 N/A
1:55 am 01:55 Cloudy 7 -14 5 -15 92 92 W 7 11 30.62 1037 5 8 N/A
2:15 am 02:15 Cloudy 5 -15 5 -15 100 100 WSW 3 6 30.62 1037 3 5 N/A
2:35 am 02:35 Partly Cloudy 3 -16 3 -16 100 100 SSW 5 7 30.65 1038 4 6 N/A
2:55 am 02:55 Mostly Cloudy 3 -16 1 -17 92 92 SSW 5 7 30.65 1038 3 4 N/A
3:15 am 03:15 Partly Cloudy 3 -16 3 -16 100 100 SW 5 7 30.65 1038 5 8 N/A
3:35 am 03:35 Mostly Cloudy 3 -16 3 -16 100 100 SSW 5 7 30.65 1038 7 11 N/A
3:55 am 03:55 Cloudy 5 -15 5 -15 100 100 SW 5 7 30.62 1037 4 6 N/A
4:15 am 04:15 Cloudy 7 -14 5 -15 92 92 W 8 13 30.62 1037 3 5 N/A
4:35 am 04:35 Cloudy 7 -14 7 -14 100 100 W 8 13 30.62 1037 4 6 N/A
4:55 am 04:55 Cloudy 7 -14 5 -15 92 92 W 7 11 30.62 1037 4 6 N/A
5:15 am 05:15 Cloudy 5 -15 3 -16 92 92 W 6 9 30.62 1037 7 11 N/A
5:35 am 05:35 Cloudy 3 -16 3 -16 100 100 W 6 9 30.65 1038 7 11 N/A
5:55 am 05:55 Cloudy 7 -14 5 -15 92 92 W 6 9 30.62 1037 10 16 N/A
6:15 am 06:15 Cloudy 7 -14 5 -15 92 92 W 9 15 30.62 1037 10 16 N/A
6:35 am 06:35 Cloudy 5 -15 5 -15 100 100 W 8 13 30.62 1037 10 16 N/A
6:55 am 06:55 Cloudy 5 -15 5 -15 100 100 W 6 9 30.62 1037 10 16 N/A
7:15 am 07:15 Cloudy 5 -15 5 -15 100 100 W 7 11 30.62 1037 10 16 N/A
7:35 am 07:35 Cloudy 5 -15 5 -15 100 100 W 6 9 30.62 1037 7 11 N/A
7:55 am 07:55 Cloudy 5 -15 5 -15 100 100 W 7 11 30.62 1037 7 11 N/A
8:15 am 08:15 Cloudy 5 -15 5 -15 100 100 W 8 13 30.62 1037 7 11 N/A
8:35 am 08:35 Cloudy 5 -15 5 -15 100 100 W 7 11 30.65 1038 4 6 N/A
8:55 am 08:55 Cloudy 5 -15 3 -16 92 92 WSW 7 11 30.65 1038 3 5 N/A
9:15 am 09:15 Cloudy 5 -15 5 -15 100 100 W 8 13 30.65 1038 2 3 N/A
9:35 am 09:35 Cloudy 5 -15 5 -15 100 100 W 7 11 30.65 1038 1 2 N/A
9:55 am 09:55 Cloudy 5 -15 3 -16 92 92 WSW 6 9 30.65 1038 7 11 N/A
10:15 am 10:15 Cloudy 7 -14 5 -15 92 92 W 5 7 30.65 1038 10 16 N/A
10:35 am 10:35 Mostly Cloudy 7 -14 5 -15 92 92 W 5 7 30.65 1038 10 16 N/A
10:55 am 10:55 Sunny 9 -13 5 -15 85 85 SW 5 7 30.68 1039 10 16 N/A
11:15 am 11:15 Sunny 10 -12 5 -15 79 79 W 3 6 30.68 1039 10 16 N/A
11:35 am 11:35 Sunny 10 -12 7 -14 85 85 N N/A 30.68 1039 10 16 N/A
11:56 am 11:56 Sunny 12 -11 7 -14 79 79 SW 5 7 30.65 1038 10 16 N/A
12:15 pm 12:15 Sunny 14 -10 9 -13 79 79 WSW 5 7 30.65 1038 10 16 N/A
12:35 pm 12:35 Sunny 14 -10 9 -13 79 79 N N/A 30.65 1038 10 16 N/A
12:56 pm 12:56 Sunny 16 -9 10 -12 79 79 SSW 5 7 30.62 1037 10 16 N/A
1:15 pm 13:15 Sunny 16 -9 10 -12 79 79 WSW 5 7 30.62 1037 10 16 N/A
1:35 pm 13:35 Sunny 18 -8 10 -12 73 73 SW 6 9 30.59 1036 10 16 N/A
1:55 pm 13:55 Sunny 18 -8 12 -11 79 79 SW 6 9 30.59 1036 10 16 N/A
2:15 pm 14:15 Sunny 19 -7 12 -11 73 73 WSW 7 11 30.56 1035 10 16 N/A
2:35 pm 14:35 Sunny 19 -7 12 -11 73 73 WSW 7 11 30.56 1035 10 16 N/A
2:55 pm 14:55 Sunny 19 -7 12 -11 73 73 WSW 8 13 30.56 1035 10 16 N/A
3:15 pm 15:15 Sunny 19 -7 12 -11 73 73 WSW 7 11 30.56 1035 10 16 N/A
3:35 pm 15:35 Sunny 19 -7 14 -10 79 79 WSW 7 11 30.56 1035 10 16 N/A
3:55 pm 15:55 Sunny 19 -7 12 -11 73 73 WSW 8 13 30.56 1035 10 16 N/A
4:15 pm 16:15 Sunny 19 -7 12 -11 73 73 SW 8 13 30.56 1035 10 16 N/A
4:35 pm 16:35 Sunny 18 -8 12 -11 79 79 SW 7 11 30.56 1035 10 16 N/A
4:55 pm 16:55 Sunny 18 -8 12 -11 79 79 SW 9 15 30.56 1035 10 16 N/A
5:15 pm 17:15 Sunny 18 -8 12 -11 79 79 WSW 8 13 30.56 1035 10 16 N/A
5:35 pm 17:35 Sunny 16 -9 10 -12 79 79 SW 7 11 30.59 1036 10 16 N/A
5:55 pm 17:55 Clear 14 -10 10 -12 85 85 SW 7 11 30.59 1036 10 16 N/A
6:15 pm 18:15 Clear 14 -10 10 -12 85 85 SW 8 13 30.56 1035 10 16 N/A
6:35 pm 18:35 Clear 14 -10 10 -12 85 85 SW 9 15 30.56 1035 10 16 N/A
6:55 pm 18:55 Clear 14 -10 10 -12 85 85 SW 8 13 30.56 1035 10 16 N/A
7:15 pm 19:15 Clear 14 -10 10 -12 85 85 SW 7 11 30.56 1035 10 16 N/A
7:35 pm 19:35 Clear 14 -10 10 -12 85 85 SW 8 13 30.53 1034 10 16 N/A
7:55 pm 19:55 Clear 12 -11 9 -13 85 85 SW 9 15 30.53 1034 10 16 N/A
8:15 pm 20:15 Clear 12 -11 9 -13 85 85 WSW 10 17 30.53 1034 10 16 N/A
8:35 pm 20:35 Clear 12 -11 9 -13 85 85 WSW 10 17 30.53 1034 10 16 N/A
8:55 pm 20:55 Clear 12 -11 9 -13 85 85 WSW 10 17 30.53 1034 10 16 N/A
9:15 pm 21:15 Clear 12 -11 9 -13 85 85 SW 10 17 30.53 1034 10 16 N/A
9:35 pm 21:35 Clear 12 -11 9 -13 85 85 SW 10 17 30.53 1034 10 16 N/A
9:55 pm 21:55 Clear 10 -12 9 -13 92 92 SW 9 15 30.50 1033 10 16 N/A
10:15 pm 22:15 Clear 10 -12 9 -13 92 92 SW 10 17 30.50 1033 10 16 N/A
10:35 pm 22:35 Clear 10 -12 7 -14 85 85 SW 12 19 30.50 1033 10 16 N/A
10:55 pm 22:55 Clear 10 -12 7 -14 85 85 SW 12 19 30.48 1032 10 16 N/A
11:15 pm 23:15 Clear 10 -12 7 -14 85 85 SW 12 19 30.48 1032 10 16 N/A
11:35 pm 23:35 Clear 10 -12 7 -14 85 85 SW 10 17 30.48 1032 10 16 N/A
11:55 pm 23:55 Clear 10 -12 7 -14 85 85 SW 9 15 30.48 1032 10 16 N/A

Powered by AerisWeather